Terminal Aerodrome Forecast
Issued by NWS

Home | Current Version | Previous Version | Text Only | Print | Product List | Glossary On
Versions: 1 2 3 4 5 6 7 8 9 10 11 12 13 14 15 16 17
481
FTUS43 KPAH 191121
TAFCGI
TAF
KCGI 191121Z 1912/2012 VRB03KT 6SM BR SCT060 BKN120
     FM191300 32003KT P6SM FEW030
     FM191700 34005KT P6SM SCT040
     FM200000 VRB02KT P6SM SKC=

USA.gov is the U.S. government's official web portal to all federal, state and local government web resources and services.